Regional Weather Roundup
Issued by NWS

Home | Current Version | Previous Version | Graphics & Text | Print | Product List | Glossary On
Versions: 1 2 3 4 5 6 7 8 9 10 11 12 13 14 15 16 17 18 19 20 21 22 23 24 25 26 27 28
000
ASUS45 KCYS 192010
RWRWY

WYOMING REGIONAL WEATHER ROUNDUP
NATIONAL WEATHER SERVICE CHEYENNE WY
100 PM MST SUN FEB 19 2017

NOTE:  "FAIR" INDICATES FEW OR NO CLOUDS BELOW 12,000 FEET
WITH NO SIGNIFICANT WEATHER AND/OR OBSTRUCTIONS TO VISIBILITY.

WYZ001-192100-
YELLOWSTONE NATIONAL PARK

CITY           SKY/WX    TMP DP  RH WIND       PRES   REMARKS
LK YELLOWSTONE   N/A     33  27  78 W8        29.63S WCI  26
W YELLOWSTONE  NOT AVBL

$$
WYZ002>013-054>058-071-098>099-192100-
NORTHERN WYOMING

CITY           SKY/WX    TMP DP  RH WIND       PRES   REMARKS
JACKSON        PTSUNNY   36  34  93 S7        29.63F WCI  30
CODY           FAIR      54  26  34 W10G18    29.50F
GREYBULL       FAIR      50  36  58 S5        29.49F
WORLAND        FAIR      52  35  52 CALM      29.48S
SHERIDAN       FAIR      47  32  56 VRB6      29.43R
BUFFALO        FAIR      63  26  24 SW17G23   29.44F
GILLETTE       FAIR      60  33  36 SW28G41   29.43F
HULETT         FAIR      61  32  33 SW24G31   29.48F
NEWCASTLE      FAIR      55  32  41 SE15      29.55F

$$
WYZ014>020-022>026-101>103-192100-
CENTRAL WYOMING

CITY           SKY/WX    TMP DP  RH WIND       PRES   REMARKS
BIG PINEY      FAIR      35  32  88 SW13      29.65S WCI  26
PINEDALE       MOCLDY    34  32  93 E6        29.66S WCI  29
DUBOIS         FAIR      36  28  75 W21G26    29.57F WCI  24
LANDER         FAIR      54  27  35 S15       29.53F
RIVERTON       FAIR      42  33  70 S6        29.55S
CASPER         FAIR      54  31  41 SW20G33   29.58S
DOUGLAS        FAIR      56  29  35 W13       29.59S

$$
WYZ021-027>030-104>119-192100-
SOUTHERN WYOMING

CITY           SKY/WX    TMP DP  RH WIND       PRES   REMARKS
EVANSTON       CLOUDY    34  31  88 SW10      29.70S FOG     WCI  26
KEMMERER         N/A     34  32  93 W21G26    29.68S WCI  22
FORT BRIDGER   CLOUDY    38  37  95 W15G21    29.72S WCI  29
ROCK SPRINGS   FLURRIES  37  32  82 W12       29.70R WCI  29
DIXON            N/A     46  31  55 SW13G18   29.72S
RAWLINS        CLOUDY    45  31  58 SW16      29.67F
SARATOGA       CLOUDY    46  28  49 W6        29.68F
LARAMIE        PTSUNNY   50  23  34 W10       29.65F
CHEYENNE       FAIR      55  25  31 SE10      29.64F
TORRINGTON     FAIR      61  30  31 SE10      29.59F
PINE BLUFFS    FAIR      61  25  25 S13       29.62F

$$




USA.gov is the U.S. government's official web portal to all federal, state and local government web resources and services.